Weather History for Taylorville, IL

Change the Weather History Date:

Monday, March 17, 2014

  Actual Average (KSPI) Record (KSPI)
Temperature  
Mean Temperature 29 °F 43 °F  
Max Temperature 39 °F 53 °F 79 °F (1894)
Min Temperature 19 °F 33 °F 3 °F (1906)
Degree Days  
Heating Degree Days 36 22  
Month to date heating degree days 435  
Since 1 July heating degree days 4706  
Cooling Degree Days 0 0  
Month to date cooling degree days 0  
Year to date cooling degree days 0  
Moisture  
Dew Point 18 °F    
Average Humidity 65    
Maximum Humidity 86    
Minimum Humidity 48    
Precipitation  
Precipitation 0.00 in 0.08 in 1.31 in (1951)
Month to date precipitation 1.38  
Year to date precipitation 5.01  
Snow  
Snow 0.00 in 0.10 in 2.10 in (1970)
Month to date snowfall 1.8  
Since 1 July snowfall 19.9  
Snow Depth -    
Sea Level Pressure  
Sea Level Pressure 29.91 in    
Wind  
Wind Speed 8 mph (ENE)    
Max Wind Speed 16 mph    
Max Gust Speed 18 mph    
Visibility 10 miles    
Events      
T = Trace of Precipitation, MM = Missing Value Source: NWS Daily Summary

Daily Weather History Graph

Daily Weather History Graph

Search for Another Location

Airport:

Trip Planner

Search our weather history database for the weather conditions in past years. The results will help you decide how hot, cold, wet, or windy it might be!

Date:

Astronomy

Mar. 17, 2014 Rise Set
Actual Time 7:05 AM CDT 7:06 PM CDT
Civil Twilight 6:38 AM CDT 7:33 PM CDT
Nautical Twilight 6:07 AM CDT 8:04 PM CDT
Astronomical Twilight 5:35 AM CDT 8:36 PM CDT
Moon 8:22 PM CDT (3/17) 7:21 AM CDT (3/17)
Length of Visible Light 12h 54m
Length of Day
12h 00m
Full, 99% of the Moon is Illuminated
Mar 17
Full
Mar 23
Last Quarter
Mar 30
New
Apr 7
First Quarter
Apr 15
Full

Hourly Weather History & Observations

Time (CDT) Temp. Windchill Dew Point Humidity Pressure Visibility Wind Dir Wind Speed Gust Speed Precip Events Conditions
12:15 AM 23.0 °F 9.6 °F 19.4 °F 86% 30.09 in 10.0 mi North 16.1 mph - N/A   Clear
12:35 AM 23.0 °F 11.1 °F 17.6 °F 80% 30.09 in 10.0 mi North 12.7 mph - N/A   Clear
1:15 AM 23.0 °F 11.1 °F 17.6 °F 80% 30.06 in 10.0 mi NNE 12.7 mph 18.4 mph N/A   Clear
1:35 AM 21.2 °F 9.5 °F 17.6 °F 86% 30.05 in 10.0 mi NNE 11.5 mph - N/A   Clear
1:55 AM 21.2 °F 10.9 °F 17.6 °F 86% 30.04 in 10.0 mi NNE 9.2 mph - N/A   Clear
2:15 AM 21.2 °F 10.1 °F 17.6 °F 86% 30.04 in 10.0 mi NNE 10.4 mph - N/A   Clear
2:35 AM 21.2 °F 11.7 °F 17.6 °F 86% 30.03 in 10.0 mi NNE 8.1 mph - N/A   Clear
2:55 AM 21.2 °F 10.9 °F 17.6 °F 86% 30.02 in 10.0 mi NNE 9.2 mph - N/A   Clear
3:15 AM 21.2 °F 10.9 °F 17.6 °F 86% 30.02 in 10.0 mi NNE 9.2 mph - N/A   Clear
3:35 AM 21.2 °F 11.7 °F 17.6 °F 86% 30.01 in 10.0 mi NNE 8.1 mph - N/A   Clear
3:55 AM 21.2 °F 11.7 °F 15.8 °F 80% 29.98 in 10.0 mi ENE 8.1 mph - N/A   Clear
4:15 AM 21.2 °F 10.9 °F 14.0 °F 74% 29.97 in 10.0 mi NE 9.2 mph - N/A   Clear
4:35 AM 21.2 °F 10.9 °F 14.0 °F 74% 29.98 in 10.0 mi NE 9.2 mph - N/A   Clear
4:55 AM 21.2 °F 10.9 °F 12.2 °F 68% 29.98 in 10.0 mi NE 9.2 mph - N/A   Clear
5:15 AM 21.2 °F 10.1 °F 12.2 °F 68% 29.97 in 10.0 mi NE 10.4 mph - N/A   Clear
5:35 AM 19.4 °F 12.8 °F 14.0 °F 80% 29.97 in 10.0 mi NE 4.6 mph - N/A   Clear
5:55 AM 19.4 °F 9.5 °F 12.2 °F 74% 29.96 in 10.0 mi ENE 8.1 mph - N/A   Clear
6:15 AM 19.4 °F 10.4 °F 12.2 °F 74% 29.95 in 10.0 mi ENE 6.9 mph - N/A   Clear
6:35 AM 19.4 °F 9.5 °F 12.2 °F 74% 29.96 in 10.0 mi NE 8.1 mph - N/A   Clear
6:55 AM 19.4 °F 9.5 °F 12.2 °F 74% 29.97 in 10.0 mi NE 8.1 mph - N/A   Clear
7:15 AM 19.4 °F 7.9 °F 12.2 °F 74% 29.97 in 10.0 mi NE 10.4 mph - N/A   Clear
7:35 AM 21.2 °F 11.7 °F 12.2 °F 68% 29.98 in 10.0 mi NE 8.1 mph - N/A   Clear
7:55 AM 21.2 °F 12.6 °F 14.0 °F 74% 29.98 in 10.0 mi NNE 6.9 mph - N/A   Clear
8:15 AM 21.2 °F 11.7 °F 14.0 °F 74% 29.99 in 10.0 mi NE 8.1 mph - N/A   Clear
8:35 AM 23.0 °F 13.1 °F 12.2 °F 63% 29.97 in 10.0 mi ENE 9.2 mph - N/A   Clear
8:55 AM 23.0 °F 14.7 °F 12.2 °F 63% 29.96 in 10.0 mi NE 6.9 mph - N/A   Clear
9:15 AM 24.8 °F 16.9 °F 12.2 °F 59% 29.97 in 10.0 mi East 6.9 mph - N/A   Clear
9:35 AM 24.8 °F 17.9 °F 12.2 °F 59% 29.97 in 10.0 mi ENE 5.8 mph - N/A   Clear
9:55 AM 26.6 °F - 12.2 °F 55% 29.96 in 10.0 mi Calm Calm - N/A   Clear
10:15 AM 26.6 °F 22.6 °F 12.2 °F 55% 29.95 in 10.0 mi East 3.5 mph - N/A   Clear
10:35 AM 28.4 °F 23.3 °F 14.0 °F 55% 29.95 in 10.0 mi ESE 4.6 mph - N/A   Clear
10:55 AM 28.4 °F - 14.0 °F 55% 29.95 in 10.0 mi Calm Calm - N/A   Clear
11:15 AM 28.4 °F - 14.0 °F 55% 29.94 in 10.0 mi Calm Calm - N/A   Clear
11:35 AM 30.2 °F 26.7 °F 14.0 °F 51% 29.93 in 10.0 mi NNE 3.5 mph - N/A   Clear
11:55 AM 32.0 °F 28.7 °F 15.8 °F 51% 29.93 in 10.0 mi East 3.5 mph - N/A   Clear
12:15 PM 32.0 °F 28.7 °F 15.8 °F 51% 29.92 in 10.0 mi NNE 3.5 mph - N/A   Clear
12:35 PM 32.0 °F 28.7 °F 17.6 °F 55% 29.91 in 10.0 mi North 3.5 mph - N/A   Clear
12:55 PM 32.0 °F 27.5 °F 19.4 °F 60% 29.90 in 10.0 mi NNW 4.6 mph - N/A   Clear
1:15 PM 32.0 °F 27.5 °F 19.4 °F 60% 29.89 in 10.0 mi WNW 4.6 mph - N/A   Clear
1:35 PM 33.8 °F - 19.4 °F 56% 29.88 in 10.0 mi Calm Calm - N/A   Clear
1:55 PM 33.8 °F 29.6 °F 19.4 °F 56% 29.86 in 10.0 mi NNW 4.6 mph - N/A   Clear
2:15 PM 33.8 °F 30.8 °F 21.2 °F 60% 29.85 in 10.0 mi North 3.5 mph - N/A   Clear
2:35 PM 35.6 °F 32.8 °F 21.2 °F 56% 29.85 in 10.0 mi WNW 3.5 mph - N/A   Clear
2:55 PM 35.6 °F - 19.4 °F 52% 29.85 in 10.0 mi Calm Calm - N/A   Clear
3:15 PM 37.4 °F - 21.2 °F 52% 29.85 in 10.0 mi Calm Calm - N/A   Clear
3:35 PM 37.4 °F 34.9 °F 21.2 °F 52% 29.82 in 10.0 mi ESE 3.5 mph - N/A   Clear
3:55 PM 37.4 °F 32.1 °F 19.4 °F 48% 29.81 in 10.0 mi SE 6.9 mph - N/A   Clear
4:15 PM 37.4 °F 33.8 °F 19.4 °F 48% 29.82 in 10.0 mi South 4.6 mph - N/A   Clear
4:35 PM 39.2 °F 34.2 °F 21.2 °F 49% 29.80 in 10.0 mi ESE 6.9 mph - N/A   Clear
4:55 PM 37.4 °F 32.1 °F 19.4 °F 48% 29.80 in 10.0 mi SE 6.9 mph - N/A   Clear
5:15 PM 37.4 °F 32.1 °F 21.2 °F 52% 29.80 in 10.0 mi SSE 6.9 mph - N/A   Clear
5:35 PM 39.2 °F 32.0 °F 23.0 °F 52% 29.78 in 10.0 mi SE 11.5 mph - N/A   Clear
5:55 PM 37.4 °F 32.1 °F 23.0 °F 56% 29.80 in 10.0 mi SE 6.9 mph - N/A   Clear
6:15 PM 39.2 °F 37.0 °F 23.0 °F 52% 29.80 in 10.0 mi ESE 3.5 mph - N/A   Clear
6:35 PM 39.2 °F 35.9 °F 23.0 °F 52% 29.80 in 10.0 mi East 4.6 mph - N/A   Clear
6:55 PM 37.4 °F 34.9 °F 23.0 °F 56% 29.81 in 10.0 mi ESE 3.5 mph - N/A   Clear
7:15 PM 35.6 °F 31.7 °F 23.0 °F 60% 29.79 in 10.0 mi SE 4.6 mph - N/A   Clear
7:35 PM 35.6 °F 31.7 °F 23.0 °F 60% 29.80 in 10.0 mi ESE 4.6 mph - N/A   Clear
7:55 PM 35.6 °F 31.7 °F 23.0 °F 60% 29.80 in 10.0 mi SSE 4.6 mph - N/A   Clear
8:15 PM 35.6 °F 30.7 °F 23.0 °F 60% 29.80 in 10.0 mi SSE 5.8 mph - N/A   Clear
8:35 PM 35.6 °F 31.7 °F 21.2 °F 56% 29.81 in 10.0 mi SE 4.6 mph - N/A   Clear
8:55 PM 33.8 °F 29.6 °F 23.0 °F 65% 29.82 in 10.0 mi SE 4.6 mph - N/A   Clear
9:15 PM 33.8 °F 27.7 °F 23.0 °F 65% 29.81 in 10.0 mi SSE 6.9 mph - N/A   Clear
9:35 PM 33.8 °F 27.7 °F 23.0 °F 65% 29.82 in 10.0 mi SSE 6.9 mph - N/A   Clear
9:55 PM 33.8 °F 27.7 °F 23.0 °F 65% 29.82 in 10.0 mi South 6.9 mph - N/A   Clear
10:15 PM 32.0 °F 25.6 °F 23.0 °F 69% 29.82 in 10.0 mi SSE 6.9 mph - N/A   Clear
10:35 PM 32.0 °F 25.6 °F 23.0 °F 69% 29.82 in 10.0 mi SE 6.9 mph - N/A   Clear
10:55 PM 33.8 °F 26.4 °F 23.0 °F 65% 29.82 in 10.0 mi SSE 9.2 mph - N/A   Clear
11:15 PM 33.8 °F 26.4 °F 26.6 °F 75% 29.82 in 10.0 mi SSE 9.2 mph - N/A   Clear
11:35 PM 33.8 °F 27.0 °F 26.6 °F 75% 29.82 in 10.0 mi SE 8.1 mph - N/A   Clear
11:55 PM 33.8 °F 26.4 °F 28.4 °F 81% 29.81 in 10.0 mi SE 9.2 mph - N/A   Clear